Location: North Evanston
(42.0634°N, 87.6976°W)
Time: 10:37:15
(UTC+00:00)

Vanguard 3 - Pass Details

Date: 11 May 2026
Orbit: 507 x 3204 km, 33.3° (Epoch: 11 June)

Event Time Altitude Azimuth Distance (km) Brightness Sun altitude
Rises 19:38:58 0° 226° (SW) 6,808 12.4 56.2°
Reaches altitude 10° 19:43:34 10° 221° (SW) 5,969 12.3 55.5°
Maximum altitude 20:01:26 47° 156° (SSE) 3,775 11.2 52.7°
Drops below altitude 10° 20:16:42 10° 90° (E) 5,187 11.0 50.2°
Sets 20:20:20 0° 84° (E) 5,894 11.2 49.6°
